• In Spain
  • List of Countries
  • For 7 days
  • Water Temperature
  • Satellite Maps
  • Weather Map
  • Weather Widgets
  • user-avatar
    Login

    Hourly Weather Kormovische

    Today, 17 October, Wednesday

    Time Temperature Precipitation Wind Pressure Humidity
    00:00 +3°C° 0.1 mm 3 mps 734 mmHg 98%
    01:00 +3°C° 0.1 mm 3 mps 733 mmHg 98%
    02:00 +3°C° 0 mm 3 mps 732 mmHg 97%
    03:00 +4°C° 0 mm 4 mps 732 mmHg 97%
    04:00 +4°C° 0 mm 3 mps 731 mmHg 96%
    05:00 +4°C° 0 mm 4 mps 730 mmHg 96%
    06:00 +4°C° 0 mm 4 mps 730 mmHg 95%
    07:00 +5°C° 0 mm 5 mps 729 mmHg 95%
    08:00 +5°C° 0.1 mm 5 mps 728 mmHg 94%
    09:00 +5°C° 0.1 mm 5 mps 728 mmHg 93%
    10:00 +6°C° 0 mm 5 mps 727 mmHg 92%
    11:00 +5°C° 0.2 mm 6 mps 728 mmHg 87%
    12:00 +5°C° 0.2 mm 6 mps 728 mmHg 83%
    13:00 +5°C° 0.2 mm 7 mps 728 mmHg 78%
    14:00 +5°C° 0.1 mm 7 mps 729 mmHg 76%
    15:00 +4°C° 0.1 mm 7 mps 730 mmHg 73%
    16:00 +3°C° 0.1 mm 7 mps 731 mmHg 71%
    17:00 +3°C° 0 mm 6 mps 731 mmHg 72%
    18:00 +2°C° 0 mm 6 mps 732 mmHg 74%
    19:00 +2°C° 0 mm 5 mps 733 mmHg 76%
    20:00 +1°C° 0 mm 5 mps 733 mmHg 77%
    21:00 +1°C° 0 mm 5 mps 734 mmHg 78%
    22:00 +1°C° 0 mm 5 mps 734 mmHg 79%
    23:00 +1°C° 0 mm 5 mps 734 mmHg 79%

    Tomorrow, 18 October, Thursday

    Time Temperature Precipitation Wind Pressure Humidity
    00:00 +1°C° 0 mm 5 mps 735 mmHg 80%
    01:00 +1°C° 0 mm 5 mps 735 mmHg 80%
    02:00 +1°C° 0 mm 5 mps 735 mmHg 81%
    03:00 +1°C° 0 mm 5 mps 735 mmHg 81%
    04:00 +1°C° 0 mm 5 mps 736 mmHg 82%
    05:00 +1°C° 0 mm 5 mps 736 mmHg 82%
    06:00 0°C° 0 mm 5 mps 736 mmHg 82%
    07:00 0°C° 0 mm 5 mps 736 mmHg 82%
    08:00 +1°C° 0 mm 5 mps 736 mmHg 81%
    09:00 +1°C° 0 mm 5 mps 737 mmHg 79%
    10:00 +1°C° 0 mm 5 mps 737 mmHg 78%
    11:00 +1°C° 0 mm 5 mps 737 mmHg 78%
    12:00 +1°C° 0 mm 5 mps 737 mmHg 78%
    13:00 +2°C° 0 mm 5 mps 737 mmHg 78%
    14:00 +1°C° 0 mm 4 mps 737 mmHg 78%
    15:00 +1°C° 0 mm 4 mps 737 mmHg 79%
    16:00 +2°C° 0 mm 3 mps 737 mmHg 80%
    17:00 +2°C° 0 mm 3 mps 737 mmHg 83%
    18:00 +2°C° 0 mm 2 mps 737 mmHg 86%
    19:00 +2°C° 0 mm 2 mps 737 mmHg 88%
    20:00 +2°C° 0 mm 2 mps 737 mmHg 89%
    21:00 +2°C° 0 mm 2 mps 737 mmHg 90%
    22:00 +2°C° 0 mm 2 mps 736 mmHg 90%
    23:00 +2°C° 0.3 mm 2 mps 736 mmHg 91%

    Day after tomorrow, 19 October, Friday

    Time Temperature Precipitation Wind Pressure Humidity
    00:00 +2°C° 0.3 mm 2 mps 735 mmHg 92%
    01:00 +2°C° 0.3 mm 2 mps 735 mmHg 92%
    02:00 +2°C° 0.2 mm 2 mps 734 mmHg 93%
    03:00 +2°C° 0.2 mm 2 mps 734 mmHg 93%
    04:00 +3°C° 0.2 mm 2 mps 734 mmHg 94%
    05:00 +3°C° 0.1 mm 2 mps 733 mmHg 95%
    06:00 +3°C° 0.1 mm 2 mps 733 mmHg 96%
    07:00 +3°C° 0.1 mm 2 mps 733 mmHg 97%
    08:00 +4°C° 0.1 mm 2 mps 733 mmHg 97%
    09:00 +4°C° 0.1 mm 2 mps 733 mmHg 96%
    10:00 +5°C° 0.1 mm 2 mps 733 mmHg 96%
    11:00 +4°C° 0.1 mm 3 mps 733 mmHg 95%
    12:00 +5°C° 0.1 mm 3 mps 733 mmHg 95%
    13:00 +5°C° 0.1 mm 3 mps 733 mmHg 94%
    14:00 +5°C° 0 mm 3 mps 733 mmHg 94%
    15:00 +7°C° 0 mm 3 mps 732 mmHg 94%
    16:00 +7°C° 0 mm 3 mps 732 mmHg 94%
    17:00 +7°C° 0 mm 3 mps 732 mmHg 94%
    18:00 +7°C° 0 mm 3 mps 732 mmHg 93%
    19:00 +6°C° 0 mm 4 mps 732 mmHg 92%
    20:00 +5°C° 0 mm 4 mps 732 mmHg 92%
    21:00 +5°C° 0 mm 4 mps 731 mmHg 91%
    22:00 +5°C° 0 mm 4 mps 731 mmHg 91%
    23:00 +5°C° 0.1 mm 4 mps 731 mmHg 92%

    20 October, Saturday

    Time Temperature Precipitation Wind Pressure Humidity
    00:00 +5°C° 0.1 mm 4 mps 731 mmHg 93%
    01:00 +5°C° 0.1 mm 4 mps 730 mmHg 94%
    02:00 +6°C° 0.1 mm 4 mps 730 mmHg 94%
    03:00 +6°C° 0.1 mm 4 mps 730 mmHg 94%
    04:00 +7°C° 0.1 mm 3 mps 730 mmHg 94%
    05:00 +5°C° 0.1 mm 3 mps 730 mmHg 95%
    06:00 +5°C° 0.1 mm 3 mps 730 mmHg 95%
    07:00 +5°C° 0.1 mm 3 mps 730 mmHg 96%
    08:00 +5°C° 0 mm 3 mps 730 mmHg 94%
    09:00 +5°C° 0 mm 3 mps 730 mmHg 92%
    10:00 +5°C° 0 mm 3 mps 730 mmHg 90%
    11:00 +5°C° 0.1 mm 3 mps 730 mmHg 88%
    12:00 +5°C° 0.1 mm 3 mps 730 mmHg 86%
    13:00 +7°C° 0.1 mm 3 mps 730 mmHg 83%
    14:00 +5°C° 0.1 mm 3 mps 730 mmHg 82%
    15:00 +5°C° 0.1 mm 3 mps 730 mmHg 81%
    16:00 +5°C° 0.1 mm 3 mps 730 mmHg 79%
    17:00 +4°C° 0 mm 3 mps 730 mmHg 81%
    18:00 +5°C° 0 mm 2 mps 731 mmHg 82%
    19:00 +4°C° 0 mm 2 mps 731 mmHg 83%
    20:00 +4°C° 0 mm 2 mps 731 mmHg 86%
    21:00 +3°C° 0 mm 2 mps 731 mmHg 89%
    22:00 +3°C° 0 mm 2 mps 731 mmHg 92%
    23:00 +3°C° 0 mm 2 mps 731 mmHg 92%

    21 October, Sunday

    Time Temperature Precipitation Wind Pressure Humidity
    00:00 +2°C° 0 mm 3 mps 731 mmHg 93%
    01:00 +2°C° 0 mm 3 mps 731 mmHg 93%
    02:00 +2°C° 0 mm 3 mps 731 mmHg 92%
    03:00 +1°C° 0 mm 4 mps 732 mmHg 91%
    04:00 +1°C° 0 mm 4 mps 732 mmHg 89%
    05:00 0°C° 0.1 mm 4 mps 732 mmHg 88%
    06:00 0°C° 0.1 mm 4 mps 733 mmHg 87%
    07:00 0°C° 0.1 mm 4 mps 733 mmHg 86%
    08:00 0°C° 0 mm 4 mps 733 mmHg 84%
    09:00 0°C° 0 mm 4 mps 734 mmHg 82%
    10:00 0°C° 0 mm 4 mps 734 mmHg 80%
    11:00 0°C° 0 mm 4 mps 735 mmHg 77%
    12:00 0°C° 0 mm 4 mps 735 mmHg 74%
    13:00 0°C° 0 mm 5 mps 735 mmHg 71%
    14:00 0°C° 0 mm 4 mps 736 mmHg 72%
    15:00 0°C° 0 mm 4 mps 736 mmHg 73%
    16:00 -1°C° 0 mm 4 mps 737 mmHg 73%
    17:00 -1°C° 0 mm 4 mps 737 mmHg 75%
    18:00 -2°C° 0 mm 4 mps 737 mmHg 76%
    19:00 -2°C° 0 mm 4 mps 738 mmHg 77%
    20:00 -2°C° 0 mm 4 mps 738 mmHg 78%
    21:00 -2°C° 0 mm 4 mps 738 mmHg 79%
    22:00 -2°C° 0 mm 3 mps 739 mmHg 80%
    23:00 -2°C° 0 mm 3 mps 739 mmHg 81%

    22 October, Monday

    Time Temperature Precipitation Wind Pressure Humidity
    00:00 -2°C° 0 mm 3 mps 739 mmHg 81%
    01:00 -2°C° 0 mm 3 mps 739 mmHg 82%
    02:00 -4°C° 0 mm 3 mps 739 mmHg 84%
    03:00 -4°C° 0 mm 3 mps 739 mmHg 85%
    04:00 -4°C° 0 mm 3 mps 740 mmHg 86%
    05:00 -4°C° 0 mm 3 mps 740 mmHg 86%
    06:00 -4°C° 0 mm 3 mps 740 mmHg 86%
    07:00 -4°C° 0 mm 3 mps 740 mmHg 87%
    08:00 -2°C° 0 mm 3 mps 740 mmHg 84%
    09:00 -1°C° 0 mm 3 mps 740 mmHg 80%
    10:00 -1°C° 0 mm 3 mps 740 mmHg 77%
    11:00 0°C° 0 mm 3 mps 740 mmHg 77%
    12:00 +1°C° 0 mm 3 mps 740 mmHg 77%
    13:00 +1°C° 0 mm 3 mps 740 mmHg 76%
    14:00 0°C° 0.2 mm 4 mps 740 mmHg 79%
    15:00 0°C° 0.2 mm 4 mps 739 mmHg 81%
    16:00 0°C° 0.2 mm 4 mps 739 mmHg 83%
    17:00 0°C° 0.1 mm 4 mps 739 mmHg 84%
    18:00 0°C° 0.1 mm 4 mps 738 mmHg 86%
    19:00 0°C° 0.1 mm 4 mps 738 mmHg 87%
    20:00 0°C° 0.1 mm 4 mps 738 mmHg 86%
    21:00 0°C° 0.1 mm 5 mps 737 mmHg 85%
    22:00 0°C° 0.1 mm 5 mps 737 mmHg 83%
    23:00 0°C° 0.1 mm 5 mps 736 mmHg 83%
    Show more